Regional Weather Roundup
Issued by NWS

Home | Current Version | Previous Version | Text Only | Print | Product List | Glossary Off
Versions: 1 2 3 4 5 6 7 8 9 10 11 12 13 14 15 16 17 18 19 20 21 22 23 24 25 26 27 28 29 30 31 32 33 34 35 36 37 38 39 40 41 42 43 44 45 46 47 48 49 50

000
ASUS45 KBOU 290407
RWRCO

WEATHER ROUNDUP FOR COLORADO
NATIONAL WEATHER SERVICE DENVER/BOULDER CO
1000 PM MDT SAT MAY 28 2016

NOTE: "FAIR" INDICATES FEW OR NO CLOUDS BELOW 12000 FEET WITH NO
SIGNIFICANT WEATHER AND/OR OBSTRUCTIONS TO VISIBILITY.

COZ001>005-013-030-031-290500-
...NORTHWEST COLORADO...

CITY           SKY/WX    TMP DP  RH WIND       PRES   REMARKS
CRAIG          FAIR      50  37  61 CALM      30.17R
HAYDEN         MOCLDY    52  37  58 E10       30.19R
MEEKER         FAIR      49  40  71 SW3       30.19R
MOUNT WERNER   NOT AVBL
STEAMBOAT SPGS FAIR      50  36  58 SE5       30.21R
WALDEN         NOT AVBL
$$

COZ006>008-011-290500-
...WEST CENTRAL VALLEYS...

CITY           SKY/WX    TMP DP  RH WIND       PRES   REMARKS
GRAND JUNCTION FAIR      61  35  37 N6        30.09R
MONTROSE       FAIR      60  33  36 CALM      30.15R
EAGLE          FAIR      50  37  62 SE3       30.24R
RIFLE          FAIR      53  37  54 SE8       30.14R
DELTA          FAIR      69  32  25 NW13G21   30.11R
NUCLA          FAIR      63  30  29 NW7       30.17R
$$

COZ017>023-064>068-290500-
...SOUTHWEST COLORADO...

CITY           SKY/WX    TMP DP  RH WIND       PRES   REMARKS
DURANGO        FAIR      51  32  48 CALM      30.16R
CORTEZ         FAIR      53  34  48 E6        30.12R
PAGOSA SPRINGS FAIR      48  31  52 CALM      30.24R
TELLURIDE      FAIR      48  31  52 SE8       30.33R
WOLF CREEK PAS FAIR      36  19  51 W3        30.49R
$$

COZ009-010-012-014-032>034-037-058>063-290500-
...CENTRAL COLORADO...

CITY           SKY/WX    TMP DP  RH WIND       PRES   REMARKS
ASPEN          FAIR      43  33  68 SW6       30.26R
BUENA VISTA    CLOUDY    51  28  41 NW12      30.28R
COPPER MTN     NOT AVBL
BERTHOUD PASS  FAIR      30  21  69 NW22      30.44S WCI  17
COTTONWOOD PAS CLOUDY    48  27  43 CALM      30.37R
GUNNISON       FAIR      52  32  46 NE10      30.27R
KREMMLING      FAIR      43  37  81 CALM      30.27R
LEADVILLE      FAIR      35  26  69 NE5       30.35R WCI  31
MONARCH PASS   FAIR      34  28  80 MISG      30.57R
SALIDA         FAIR      57  31  37 W6G20     30.33R
SUNLIGHT       FAIR      41  30  65 CALM      30.43R
WILKERSON PASS FAIR      37  23  56 N5        30.46R
$$

COZ069>075-290500-
...SAN LUIS VALLEY/SANGRE DE CRISTO MOUNTAINS...

CITY           SKY/WX    TMP DP  RH WIND       PRES   REMARKS
ALAMOSA        FAIR      50  37  61 N7        30.24R
LA VETA PASS   FAIR      43  28  56 S3        30.39R
SAGUACHE       FAIR      50  32  50 NW14      30.28R
$$

COZ035-036-038>040-290500-
...NORTHERN COLORADO FRONT RANGE...

CITY           SKY/WX    TMP DP  RH WIND       PRES   REMARKS
DENVER INTL AP MOCLDY    55  46  71 S12       30.13R
DMNS CITY PARK   N/A     56  45  67 E10       30.13S
AURORA         PTCLDY    53  45  75 SE10      30.16R
FRONT RANGE AP NOT AVBL
ERIE MUNI ARPT FAIR      55  46  71 CALM      30.13R
BOULDER MUN AP FAIR      55  43  62 CALM      30.13R
CENTENNIAL     FAIR      54  41  61 SW6       30.16R
BROOMFIELD     MOCLDY    59  41  51 CALM      30.15R
FORT COLLINS   FAIR      54  43  66 S7        30.13R
LONGMONT       FAIR      55  45  68 CALM      30.14R
$$

COZ041-046-047-076>085-087-088-290500-
...PIKES PEAK/PALMER DIVIDE AND SOUTHERN FOOTHILLS...

CITY           SKY/WX    TMP DP  RH WIND       PRES   REMARKS
COLO. SPRINGS  FAIR      57  39  51 NE3       30.21R
A. F. ACADEMY  FAIR      52  37  58 SW3       30.21R
SCHRIEVER AFB  NOT AVBL
ELLICOTT       FAIR     N/A N/A N/A E6        30.19R
FALCON         FAIR      52  41  65 CALM      30.24R
FORT CARSON    FAIR      57  40  52 W8        30.16R
LIMON          FAIR      58  41  53 E8        30.15F
MONUMENT HILL  FAIR      46  37  71 S8        30.23R
TRINIDAD       FAIR      57  40  52 NE6       30.16R
$$

COZ042>045-048>051-090-091-290500-
...NORTHEAST COLORADO...

CITY           SKY/WX    TMP DP  RH WIND       PRES   REMARKS
GREELEY ARPT   FAIR      54  46  76 S7        30.12R
AKRON          FAIR      58  40  51 S10       30.11R
BURLINGTON     FAIR      58  47  66 NW7       30.12R
WRAY           NOT AVBL
STERLING       FAIR      54  50  87 CALM      30.06R
HOLYOKE        TSTM      64  50  59 SW9G21    30.10R
FORT MORGAN    FAIR      56  44  62 S3        30.12R
$$

COZ086-089-092>099-290500-
...SOUTHEAST COLORADO...

CITY           SKY/WX    TMP DP  RH WIND       PRES   REMARKS
PUEBLO         FAIR      59  50  72 NW9       30.10R
LA JUNTA       FAIR      69  45  41 E8        30.08R
LAMAR          FAIR      61  44  53 S7        30.04R
SPRINGFIELD      N/A     61  47  59 S8        30.10R
$$



USA.gov is the U.S. government's official web portal to all federal, state and local government web resources and services.